Regional Weather Roundup
Issued by NWS

Home | Current Version | Previous Version | Text Only | Print | Product List | Glossary Off
Versions: 1 2 3 4 5 6 7 8 9 10 11 12 13 14 15 16 17 18 19 20 21 22 23 24 25 26 27 28 29 30 31 32 33 34 35 36 37 38 39 40 41 42 43 44 45 46 47 48 49 50

000
ASUS43 KOAX 121310
RWRNE

WEATHER ROUNDUP FOR NEBRASKA
NATIONAL WEATHER SERVICE OMAHA NE
700 AM CST FRI FEB 12 2016

NOTES: SATELLITE DATA IS BEING USED TO AUGMENT CLOUD COVER ABOVE
       12000 FEET.
       "FAIR" INDICATES FEW OR NO CLOUDS BELOW 12,000 FEET WITH NO
       SIGNIFICANT WEATHER AND/OR OBSTRUCTIONS TO VISIBILITY.

  * THESE STATIONS DO NOT REPORT WEATHER SUCH AS RAIN...SNOW OR FOG.

NEZ001>004-019>022-054>056-121400-
NEBRASKA PANHANDLE

CITY           SKY/WX    TMP DP  RH WIND       PRES   REMARKS
SCOTTSBLUFF    CLOUDY    31  27  85 NW5       30.29R WCI  26
ALLIANCE       CLOUDY    24  21  88 W9        30.27R WCI  14
CHADRON        CLOUDY    29  27  92 N3        30.33R
KIMBALL        CLOUDY    32  27  82 NW7       30.28S WCI  26
SIDNEY         CLOUDY    31  27  85 NW10      30.28R WCI  22
$$

NEZ057>060-069>072-079>082-121400-
SOUTHWEST NEBRASKA

CITY           SKY/WX    TMP DP  RH WIND       PRES   REMARKS
NORTH PLATTE   CLOUDY    27  24  89 W3        30.33R
IMPERIAL       CLOUDY    23  21  92 SE6       30.30R WCI  16
LEXINGTON      CLOUDY    33  29  88 N8        30.34R WCI  25
MCCOOK         CLOUDY    25  23  92 W8        30.33R WCI  16
OGALLALA       CLOUDY    26  24  91 CALM      30.30R
$$

NEZ005>010-023>029-035>040-094-121400-
NORTH CENTRAL NEBRASKA

CITY           SKY/WX    TMP DP  RH WIND       PRES   REMARKS
VALENTINE      CLOUDY    27  25  92 N15       30.35R FOG     WCI  15
AINSWORTH      CLOUDY    29  28  96 N15       30.34R FOG     WCI  17
BROKEN BOW     CLOUDY    31  27  85 N8        30.33R WCI  23
O`NEILL        CLOUDY    25  24  96 NE15      30.36R FOG     WCI  13
ORD            CLOUDY    26  24  92 NW5       30.34R WCI  20
THEDFORD       CLOUDY    32  31  96 N5        30.33R FOG     WCI  27
$$

NEZ041-046>049-061>064-073>077-083>087-121400-
SOUTH CENTRAL NEBRASKA

CITY           SKY/WX    TMP DP  RH WIND       PRES   REMARKS
GRAND ISLAND   CLOUDY    27  23  85 N12       30.37R WCI  17
AURORA         CLOUDY    27  25  89 N16       30.36R WCI  15
HASTINGS       CLOUDY    28  24  85 N10       30.35R WCI  19
HEBRON         CLOUDY    28  25  87 N9        30.37R WCI  19
HOLDREGE       CLOUDY    31  28  90 N6        30.34R WCI  25
KEARNEY *      CLOUDY    30  27  86 N9        30.35R WCI  22
YORK           CLOUDY    27  25  93 N17       30.36R WCI  14
$$

NEZ011>018-030>034-042>045-121400-
NORTHEAST NEBRASKA

CITY           SKY/WX    TMP DP  RH WIND       PRES   REMARKS
NORFOLK        CLOUDY    23  20  88 N12       30.36R WCI  12
ALBION         CLOUDY    25  20  81 N7        30.36R WCI  17
BLAIR          CLOUDY    21  17  86 N12       30.35R WCI   9
COLUMBUS *     CLOUDY    25  14  63 NW9       30.37R WCI  15
FREMONT        CLOUDY    22  17  83 NW10      30.38R WCI  11
TEKAMAH        CLOUDY    20  16  84 N10       30.39R WCI   9
WAYNE          CLOUDY    21  18  88 N13       30.38R WCI   9
$$

NEZ050>053-065>068-078-088>093-121400-
SOUTHEAST NEBRASKA

CITY           SKY/WX    TMP DP  RH WIND       PRES   REMARKS
LINCOLN        PTCLDY    23  18  81 N12       30.39R WCI  12
OMAHA EPPLEY   CLOUDY    20  17  88 N9        30.37R WCI   9
BEATRICE       CLOUDY    28  24  86 N13       30.37R WCI  17
FALLS CITY     CLOUDY    29  22  75 N13       30.34R WCI  19
NEBRASKA CITY  MOCLDY    24  20  86 N16       30.35R WCI  10
PLATTSMOUTH    CLOUDY    22  18  84 N9        30.35R WCI  11
$$

NEZ044-045-051>053-067-121400-
OMAHA AREA

CITY           SKY/WX    TMP DP  RH WIND       PRES   REMARKS
OMAHA EPPLEY   CLOUDY    20  17  88 N9        30.37R WCI   9
BLAIR          CLOUDY    21  17  86 N12       30.35R WCI   9
FREMONT        CLOUDY    22  17  83 NW10      30.38R WCI  11
MILLARD        CLOUDY    22  17  78 NW9       30.38R WCI  12
OFFUTT AFB     CLOUDY    21  16  81 N10       30.36R WCI  10
PLATTSMOUTH    CLOUDY    22  18  84 N9        30.35R WCI  11
WAHOO          CLOUDY    23  19  85 N13       30.38R WCI  11
$$



USA.gov is the U.S. government's official web portal to all federal, state and local government web resources and services.